CW4352 Weather Reports


Display with metric or nautical units.
time (UTC)temp
F
wind
direction
speed
MPH
gust
MPH
rain 1hr
in
rain 24hr
in
rain mn
in
humidity
%
barometer
mb
20260906193704 82 35 0.0 0.0 0.00 0.00 0.00 46 1016.9
20260906191204 83 35 0.0 0.0 0.00 0.00 0.00 44 1016.4
20260906190204 83 35 0.0 2.0 0.00 0.00 0.00 44 1016.4
20260906184204 84 35 1.0 2.0 0.00 0.00 0.00 43 1016.4
20260906181703 85 35 0.0 2.0 0.00 0.00 0.00 43 1016.4
20260906181204 85 35 0.0 2.0 0.00 0.00 0.00 43 1016.4
20260906180206 86 35 1.0 3.0 0.00 0.00 0.00 42 1016.2
20260906174705 87 35 0.0 3.0 0.00 0.00 0.00 42 1015.9
20260906174205 87 35 0.0 3.0 0.00 0.00 0.00 42 1015.9
20260906171705 89 45 1.0 3.0 0.00 0.00 0.00 40 1015.9
20260906171206 89 45 1.0 3.0 0.00 0.00 0.00 40 1015.8
20260906170205 90 47 1.0 3.0 0.00 0.00 0.00 40 1015.8
20260906160705 91 20 1.0 3.0 0.00 0.00 0.00 38 1015.8
20260906154706 91 20 2.0 3.0 0.00 0.00 0.00 37 1015.8
20260906154205 91 46 2.0 5.0 0.00 0.00 0.00 38 1015.8
20260906151205 91 59 3.0 7.0 0.00 0.00 0.00 38 1015.9
20260906143705 92 39 2.0 3.0 0.00 0.00 0.00 39 1015.9
20260906141705 91 42 2.0 6.0 0.00 0.00 0.00 40 1016.4
20260906134705 92 48 2.0 3.0 0.00 0.00 0.00 39 1016.4
20260906133705 92 46 1.0 5.0 0.00 0.00 0.00 39 1016.4
20260906133205 91 37 1.0 3.0 0.00 0.00 0.00 39 1016.4
20260906131706 90 36 2.0 5.0 0.00 0.00 0.00 41 1016.4
20260906130705 91 43 1.0 5.0 0.00 0.00 0.00 40 1016.4
20260906130206 90 69 3.0 8.0 0.00 0.00 0.00 42 1016.4
20260906124705 90 38 2.0 3.0 0.00 0.00 0.00 43 1016.5
20260906123705 90 28 2.0 6.0 0.00 0.00 0.00 42 1016.5
20260906123205 90 48 3.0 6.0 0.00 0.00 0.00 43 1016.5
20260906121205 90 54 1.0 3.0 0.00 0.00 0.00 43 1016.5
20260906120205 89 60 1.0 5.0 0.00 0.00 0.00 45 1016.7
20260906114205 88 41 2.0 3.0 0.00 0.00 0.00 46 1016.7
20260906104205 86 46 1.0 5.0 0.00 0.00 0.00 51 1017.0
20260906103707 86 44 2.0 6.0 0.00 0.00 0.00 51 1017.0
20260906103205 86 25 1.0 7.0 0.00 0.00 0.00 53 1017.0
20260906101205 85 47 1.0 3.0 0.00 0.00 0.00 54 1017.1
20260906094205 84 15 2.0 3.0 0.00 0.00 0.00 55 1017.3
20260906090705 84 23 2.0 6.0 0.00 0.00 0.00 54 1016.9
20260906081707 83 350 1.0 3.0 0.00 0.00 0.00 54 1016.9
20260906081205 83 350 1.0 5.0 0.00 0.00 0.00 54 1016.9
20260906080705 82 350 1.0 3.0 0.00 0.00 0.00 56 1016.9
20260906080205 82 350 1.0 3.0 0.00 0.00 0.00 56 1016.9
20260906074705 81 323 1.0 3.0 0.00 0.00 0.00 56 1016.5
20260906074205 81 323 1.0 3.0 0.00 0.00 0.00 57 1016.5
20260906073705 80 323 1.0 5.0 0.00 0.00 0.00 57 1016.5
20260906073205 80 323 2.0 3.0 0.00 0.00 0.00 58 1016.5
20260906071705 79 323 0.0 2.0 0.00 0.00 0.00 61 1016.5
20260906071205 78 323 0.0 1.0 0.00 0.00 0.00 59 1016.5
20260906064705 75 321 0.0 2.0 0.00 0.00 0.00 60 1016.5
20260906064205 74 321 0.0 0.0 0.00 0.00 0.00 62 1016.4
20260906063705 74 321 0.0 0.0 0.00 0.00 0.00 64 1016.4
20260906063207 73 321 0.0 0.0 0.00 0.00 0.00 65 1016.4
20260906061705 71 321 0.0 1.0 0.00 0.00 0.00 68 1016.4
20260906061205 71 321 0.0 0.0 0.00 0.00 0.00 69 1016.4
20260906060205 70 321 0.0 2.0 0.00 0.00 0.00 69 1015.9
20260906051204 69 321 0.0 2.0 0.00 0.00 0.00 70 1015.9
20260906044205 69 321 0.0 1.0 0.00 0.00 0.00 68 1015.8
20260906043205 69 321 0.0 2.0 0.00 0.00 0.00 67 1015.8
20260906041705 69 321 0.0 2.0 0.00 0.00 0.00 68 1015.3
20260906040205 69 321 1.0 3.0 0.00 0.00 0.00 68 1015.3
20260906034705 69 321 0.0 2.0 0.00 0.00 0.00 67 1015.1
20260906034205 70 321 0.0 1.0 0.00 0.00 0.00 67 1015.1
20260906033705 70 321 0.0 1.0 0.00 0.00 0.00 67 1015.1
20260906033204 70 321 0.0 0.0 0.00 0.00 0.00 66 1015.1
20260906031205 70 321 0.0 0.0 0.00 0.00 0.00 64 1014.8
20260906024705 72 321 0.0 0.0 0.00 0.00 0.00 61 1014.8
20260906024205 72 321 0.0 0.0 0.00 0.00 0.00 61 1014.8
20260906023204 72 321 0.0 0.0 0.00 0.00 0.00 59 1014.7
20260906021704 73 321 0.0 0.0 0.00 0.00 0.00 59 1014.7
20260906020705 73 321 0.0 1.0 0.00 0.00 0.00 60 1014.7
20260906014705 74 321 0.0 2.0 0.00 0.00 0.00 58 1014.5
20260906014204 74 321 0.0 1.0 0.00 0.00 0.00 57 1014.5
20260906013705 74 321 0.0 2.0 0.00 0.00 0.00 57 1014.3
20260906013204 74 321 1.0 2.0 0.00 0.00 0.00 57 1014.3
20260906011204 75 321 2.0 3.0 0.00 0.00 0.00 55 1014.3
20260906010205 75 321 1.0 3.0 0.00 0.00 0.00 55 1014.3
20260906003205 76 321 2.0 3.0 0.00 0.00 0.00 55 1014.1
20260906001705 76 321 2.0 5.0 0.00 0.00 0.00 55 1014.1
20260905234705 76 321 1.0 3.0 0.00 0.00 0.00 53 1014.2
20260905234204 77 321 1.0 3.0 0.00 0.00 0.00 54 1014.2
20260905233705 77 321 1.0 3.0 0.00 0.00 0.00 54 1014.2
20260905231705 77 321 2.0 3.0 0.00 0.00 0.00 53 1013.9
20260905223704 78 321 1.0 2.0 0.00 0.00 0.00 51 1013.2
20260905223204 78 321 1.0 3.0 0.00 0.00 0.00 51 1013.2
20260905221205 79 321 1.0 3.0 0.00 0.00 0.00 49 1013.2
20260905220705 79 321 2.0 3.0 0.00 0.00 0.00 49 1013.2
20260905220205 79 321 2.0 3.0 0.00 0.00 0.00 49 1013.2
20260905214704 80 321 1.0 5.0 0.00 0.00 0.00 47 1013.2
20260905214205 80 321 2.0 3.0 0.00 0.00 0.00 47 1013.2
20260905213704 80 321 3.0 3.0 0.00 0.00 0.00 47 1012.7
20260905213204 80 321 2.0 5.0 0.00 0.00 0.00 46 1012.7
20260905211705 80 321 3.0 5.0 0.00 0.00 0.00 45 1012.7
20260905211205 80 321 4.0 7.0 0.00 0.00 0.00 45 1012.7
20260905210704 80 348 2.0 3.0 0.00 0.00 0.00 46 1012.7
20260905204704 80 355 2.0 3.0 0.00 0.00 0.00 45 1012.7
20260905203704 81 355 2.0 3.0 0.00 0.00 0.00 43 1012.7
20260905203205 81 355 1.0 2.0 0.00 0.00 0.00 41 1012.7
20260905201204 81 355 1.0 2.0 0.00 0.00 0.00 39 1012.7
20260905200205 81 355 1.0 2.0 0.00 0.00 0.00 39 1012.7